Regional Weather Roundup
Issued by NWS

Home | Current Version | Previous Version | Text Only | Print | Product List | Glossary On
Versions: 1 2 3 4 5 6 7 8 9 10 11 12 13 14 15 16 17 18 19 20 21 22 23 24 25 26 27
000
ASUS42 KKEY 270010
RWRKEY

FLORIDA REGIONAL WEATHER ROUNDUP FOR THE FLORIDA KEYS
NATIONAL WEATHER SERVICE KEY WEST FLORIDA
800 PM EDT SUN MAR 26 2017

...SOUTH FLORIDA AND THE KEYS...

CITY           SKY/WX    TMP DP  RH WIND       PRES   REMARKS
FORT MYERS     CLEAR     79  60  52 SE6       30.05R
SW REGIONAL AP CLEAR     76  59  55 SE5       30.06R
NAPLES         PTCLDY    72  68  87 CALM      30.06S
MIAMI          MOCLDY    75  62  64 E14       30.08R
WEST KENDALL   MOCLDY    74  62  66 E10       30.07R
HOMESTEAD      PTCLDY    73  65  76 E10       30.06S
MARATHON       CLEAR     77  64  64 E9        30.05R
BOCA CHICA NAS PTCLDY    75  64  68 E14       30.05R
KEY WEST INTL  CLEAR     76  65  68 E8        30.05S

...INTERNATIONAL WEATHER...

CITY           SKY/WX    TMP DP  RH WIND       PRES   REMARKS
NASSAU BAHAMAS NOT AVBL
CANCUN MEXICO  MOCLDY    79  70  73 E9        29.98R
COZUMEL MEXICO PTCLDY    81  70  69 E13       29.96R

ADJACENT COASTAL WATERS...

STATION/POSITION TIME  SKY/WX   TEMP    WIND        PRES    WAVE
                                AIR SEA DIR/SP/G            HT/PER
                 (UTC)          (F)     (DEG/KT/KT) (MB)    (FT/S)
PULASKI SHOAL LI 0000            74      80/ 13/ 14 1017.4S
SAND KEY         2350            76      90/ 15/ 17 1017.9R
LONG KEY         2300            75 76  100/ 13/ 15 1017.8R
MOLASSES REEF    0000            75 77   70/ 13/ 14 1018.1R
FOWEY ROCKS      0000            74 76   70/ 17/ 20 1018.9R
Buoy 42097       2330                                 N/A     2/ 4

$$




USA.gov is the U.S. government's official web portal to all federal, state and local government web resources and services.